STARLINK-36393

Last updated on Sun Mar 22 2026 00:02:05 GMT+0000 (Coordinated Universal Time)

1 67859U 26034K 26080.48368877 .00279382 00000+0 13736-2 0 9999 2 67859 53.1586 152.1702 0001226 73.1412 286.9746 15.80874017 5808
UTC large
Height (km)
Speed (km/s)
/
Latitude / Longitude
Inclination (degrees)
Orbital Period (minutes)
Azimuth
Elevation
Range (km)
Doppler Factor

Next 0 passes for location: London (51.5072 / 0.1276)

Sorry there are no passes over London.